Probability
3 3 3 3 2 1 0 0 0 0 0 0 0 0 0 0 0 0 0 0 0 0 0 0 0 0 0 0 0 0 1 1 1 0 0 0 0 0
3 3 3 2 2 1 0 0 0 0 0 0 0 0 0 0 0 0 0 0 0 0 0 0 0 0 0 0 0 0 0 0 0 0 0 0 0 0
2 2 1 1 1 0 0 1 1 1 0 0 0 0 0 0 0 0 0 1 1 1 0 0 0 0 0 0 0 0 0 0 0 0 0 0 0 0
1 1 0 0 0 0 0 1 2 2 1 1 0 0 0 0 0 0 1 2 2 2 1 0 0 0 0 0 0 0 0 0 0 0 0 0 0 0
0 0 0 0 0 0 0 1 3 3 3 2 1 0 0 0 0 0 1 2 3 3 1 0 0 0 0 0 0 0 0 0 0 0 0 0 0 0
0 0 0 1 1 1 1 1 2 3 3 3 2 1 0 0 0 0 0 1 2 2 1 0 0 0 0 0 0 0 0 0 0 0 0 0 0 0
1 1 1 2 2 2 1 1 1 3 3 3 3 1 0 0 0 0 0 0 1 1 1 0 0 0 0 0 0 0 0 0 0 0 0 0 0 0
3 2 2 3 3 3 2 1 1 3 3 3 3 2 1 0 0 0 0 0 0 0 0 0 0 0 0 0 0 0 0 0 0 0 0 0 0 0
6 5 3 3 4 5 4 2 1 1 1 2 3 2 1 1 1 1 1 0 0 0 0 0 0 0 0 0 0 0 0 0 0 0 0 0 0 0
5 4 4 4 4 5 4 2 0 0 0 1 1 2 2 2 2 2 1 0 0 0 0 0 0 0 0 0 0 0 0 0 0 0 0 0 0 0
2 2 2 2 3 2 2 1 0 0 0 0 0 1 1 1 1 1 1 0 0 0 0 0 0 0 0 0 0 0 0 0 0 0 0 0 0 0
1 0 0 1 1 0 0 0 0 0 0 0 0 0 0 0 0 0 0 0 0 0 0 0 0 0 0 0 0 0 0 0 0 0 0 0 0 0
2 1 0 0 0 0 0 0 0 0 0 0 0 0 0 0 0 0 0 0 0 0 0 0 0 0 0 0 0 0 0 0 0 0 0 0 0 0
2 1 0 0 0 0 0 0 0 0 0 0 1 0 0 0 0 0 0 0 0 0 0 0 0 0 0 0 0 0 0 0 0 0 0 0 0 0
1 1 0 0 0 0 0 0 0 0 0 0 0 0 0 0 0 0 0 0 0 0 0 0 0 0 0 0 0 0 0 0 0 0 0 0 0 0
0 0 0 0 0 0 0 0 0 0 0 0 0 0 0 0 0 0 0 0 0 0 0 0 0 0 0 0 0 0 0 0 0 0 0 0 0 0
0 0 0 0 0 0 0 0 0 0 0 0 0 0 0 0 0 0 0 0 0 0 0 0 0 0 0 0 0 0 0 0 0 0 0 0 0 0
0 0 0 0 0 0 0 0 0 0 0 0 0 0 0 0 0 0 0 0 0 0 0 0 0 0 0 0 0 0 0 0 0 0 0 0 0 0
0 0 0 0 0 0 0 0 0 0 0 0 0 0 0 0 0 0 0 0 0 0 0 0 0 0 0 0 0 0 0 0 0 0 0 0 0 0
0 0 0 0 0 0 0 0 0 0 0 0 0 0 0 0 0 0 0 0 0 0 0 0 0 0 0 0 0 0 0 0 0 0 0 0 0 0
0 0 0 0 0 0 0 0 0 0 0 0 0 0 0 0 0 0 0 0 0 0 0 0 0 0 0 0 0 0 0 0 0 0 0 0 0 0
0 0 0 0 0 0 0 0 0 0 0 0 0 0 0 0 0 0 0 0 0 0 0 0 0 0 0 0 0 0 0 0 0 0 0 0 0 0
0 0 0 0 0 0 0 0 0 0 0 0 0 0 0 0 0 0 0 0 0 0 0 0 0 0 0 0 0 0 0 0 0 0 0 0 0 0
Wind_Speed
3 3 2 2 2 2 2 3 3 2 3 3 2 2 2 2 3 3 3 5 8 9 9 9 9 9 8 7 7 7 7 7 7 7 7 8 8 9
2 2 2 2 1 2 2 2 3 4 3 3 3 2 1 2 3 3 4 5 6 6 8 8 8 8 8 7 7 7 7 7 7 6 6 6 7 7
2 2 3 2 2 2 1 2 2 3 3 3 2 1 1 1 1 2 2 2 2 4 5 6 7 7 7 7 7 6 6 6 7 7 6 6 6 6
2 1 2 1 1 1 1 2 2 2 3 3 2 1 1 1 1 2 2 2 2 3 5 5 6 6 6 6 6 6 6 6 6 6 5 5 6 6
1 1 2 1 1 1 1 1 1 1 2 2 2 1 1 0 0 0 0 0 1 2 3 4 5 6 6 6 5 5 5 5 5 5 6 5 5 6
1 1 1 2 2 2 1 1 1 1 1 1 1 1 1 1 1 0 1 1 1 1 1 2 3 4 5 5 5 5 5 5 5 5 5 5 5 5
1 1 1 0 0 1 1 2 2 1 1 1 0 0 1 1 0 0 1 1 1 1 1 1 1 1 1 3 3 4 5 6 6 6 6 5 5 5
1 1 2 2 3 3 3 3 3 3 2 1 1 1 1 1 0 0 0 0 1 1 0 1 1 0 1 1 2 3 4 4 5 5 5 5 5 4
1 1 1 2 2 2 3 5 4 3 2 3 2 1 1 1 1 1 1 1 1 1 0 1 1 1 2 1 1 0 1 2 2 2 3 3 4 3
2 2 2 2 2 2 2 3 3 3 2 1 1 1 0 1 2 2 2 1 1 1 1 0 1 1 2 2 2 2 2 1 1 1 1 0 0 1
3 3 3 2 4 4 3 3 3 3 5 6 5 4 4 3 2 2 2 2 1 2 1 1 1 1 1 2 2 4 3 3 3 2 2 1 0 0
3 3 5 5 5 4 3 4 4 2 3 5 5 6 4 5 5 2 2 2 1 1 2 1 1 1 1 2 2 2 2 3 3 3 3 2 1 0
3 2 3 5 6 6 5 4 4 3 3 4 4 4 4 4 4 3 2 2 2 0 1 1 0 1 0 1 2 2 2 2 2 2 2 3 2 1
2 2 3 6 7 7 6 6 7 5 4 4 3 3 3 3 3 3 3 3 2 1 1 1 1 0 0 0 2 2 2 2 1 1 1 2 2 2
3 6 6 7 7 6 7 7 5 4 4 3 3 2 1 1 2 3 3 3 4 4 3 2 1 0 1 1 1 1 2 2 2 2 2 2 2 1
4 5 7 8 7 6 6 5 4 3 3 2 2 2 2 3 3 2 2 2 3 4 5 4 2 1 1 0 0 1 1 2 2 2 2 2 2 2
4 4 5 4 4 4 4 4 3 3 3 3 3 3 3 3 3 2 2 2 2 2 3 4 4 3 1 0 1 1 2 2 2 2 2 2 3 3
6 5 4 3 3 3 3 4 4 4 3 3 3 3 3 3 3 3 3 3 2 2 2 2 3 3 4 3 1 1 2 2 3 3 1 2 3 4
6 4 4 3 3 3 3 3 3 3 3 3 3 3 3 3 2 3 3 2 2 2 2 2 2 2 2 3 5 2 1 3 3 3 2 2 3 4
4 4 4 3 3 3 3 3 3 3 3 3 3 3 3 2 3 3 2 2 2 2 3 3 2 2 1 2 2 4 4 2 2 3 3 3 3 4
4 4 3 3 3 3 3 3 3 3 3 3 3 3 3 3 3 3 3 4 3 2 2 3 4 4 1 1 2 4 4 5 3 2 3 3 3 4
4 4 3 3 3 3 3 3 3 3 3 3 3 3 3 3 2 3 3 3 2 2 2 3 4 3 2 2 2 3 4 5 6 6 4 3 2 3
3 4 3 3 3 3 3 3 4 3 2 2 2 2 2 2 2 2 2 2 2 2 3 3 3 3 2 2 2 3 4 5 4 4 5 7 6 6
Wind_Direction
223 224 222 232 215 204 190 178 176 216 263 264 264 243 212 191 201 190 203 214 215 216 218 218 216 217 218 220 227 234 238 238 236 235 237 240 243 246
221 220 235 245 244 219 201 202 188 186 227 247 239 238 209 209 202 200 211 205 209 214 218 216 216 216 216 218 223 229 233 237 238 237 239 242 243 243
237 225 240 231 227 234 210 195 194 181 215 264 266 262 201 209 196 200 206 203 213 215 212 215 215 217 219 220 224 227 229 233 239 240 240 239 241 245
246 241 255 238 219 229 202 201 199 195 192 239 278 288 243 220 190 187 207 202 194 207 204 212 215 217 220 222 225 226 229 233 236 239 241 243 245 248
246 247 255 214 242 241 195 200 206 201 178 189 255 265 262 265 94 199 218 255 203 216 209 219 223 222 224 223 223 230 235 236 236 234 236 239 242 245
266 242 246 221 228 228 215 210 179 151 147 167 231 282 292 313 83 53 341 310 256 275 257 231 239 231 231 227 227 233 238 240 240 239 239 238 238 240
19 0 341 42 138 200 180 170 156 148 146 147 214 19 4 31 231 233 261 289 302 348 311 297 294 272 249 239 236 240 240 239 235 236 239 242 243 238
71 29 19 32 49 67 100 124 135 152 170 159 183 185 264 244 262 191 219 284 307 336 36 303 35 335 282 240 233 234 240 241 235 236 239 240 241 241
95 76 51 53 53 69 72 71 68 76 135 167 165 212 221 231 198 217 213 198 225 281 69 328 349 330 315 345 19 283 220 231 246 251 246 238 228 222
61 66 75 44 34 68 81 71 61 42 52 103 146 218 202 203 193 192 191 160 117 357 62 41 326 329 339 355 15 39 49 58 52 25 19 17 231 216
50 54 72 63 38 66 89 88 67 42 51 62 60 50 45 53 77 87 75 91 36 339 1 78 322 321 331 340 0 21 25 25 26 32 45 32 25 344
48 44 53 59 50 63 90 96 85 65 62 51 44 35 34 38 48 85 122 112 94 342 331 44 337 13 354 332 336 347 4 2 9 12 4 354 352 132
68 44 38 53 61 66 81 85 95 96 78 71 56 38 30 30 29 34 56 112 116 206 292 73 17 14 91 310 322 328 341 338 350 350 347 343 340 155
87 61 56 66 69 71 71 68 69 72 71 69 57 36 26 19 21 29 35 45 74 155 289 100 130 164 138 320 309 322 332 331 336 332 326 324 317 285
86 78 71 69 66 62 57 60 66 69 69 65 54 32 16 18 30 29 24 31 30 21 21 29 75 134 136 169 268 299 318 319 330 333 320 309 285 279
76 69 68 66 62 52 48 50 52 62 77 72 52 32 30 36 37 36 37 25 35 9 358 5 15 62 69 43 143 292 300 293 307 310 313 312 306 284
92 73 62 58 54 48 46 40 39 44 48 44 51 47 43 42 32 23 37 45 46 16 358 354 2 21 31 127 49 325 317 311 300 304 319 314 303 297
91 81 74 69 67 64 60 46 40 41 38 43 48 47 46 41 30 20 35 50 44 16 358 345 3 17 14 2 351 296 323 307 306 308 307 303 298 298
89 86 82 78 70 67 64 60 48 38 42 48 46 40 34 32 31 24 22 25 24 10 348 345 8 37 26 341 321 336 313 309 318 318 305 280 280 288
82 88 85 79 74 70 67 62 54 46 42 41 39 31 27 28 25 13 7 9 5 5 359 354 358 360 291 266 286 311 326 320 317 310 305 302 295 300
82 78 78 77 72 69 67 64 59 54 44 40 35 27 22 25 19 7 5 8 18 16 2 335 312 322 318 20 357 327 321 327 324 307 310 319 321 325
84 80 75 73 72 73 73 68 61 51 40 35 25 18 14 20 15 5 3 3 353 345 331 321 329 350 14 15 332 316 323 331 337 341 337 317 287 295
85 84 81 75 72 71 69 67 63 48 35 24 13 3 359 357 350 352 351 353 350 346 346 342 344 352 349 338 322 319 327 330 333 340 332 333 324 304